YZ-1 R/B (43650 NORAD) Tracking and Keplerian Element Data

This shows tracking and keplerian element data for the satellite.

Feedback or suggestion? Click here.




ElementValue
Catalog43650
NameYZ-1 R/B
Epoch Orbit40
Epoch Day310.86441821
Epoch Year2018
RAAN35.7609
Inclination54.8019
Eccentricity0.0100191
Argument of Perigee9.0766
Mean Anonmoly351.1044
Mean Motion1.77571004
Decay Rate-9.3E-07
L11 43650U 18078D 18310.86441821 -.00000093 00000-0 10000-3 0 9996
L22 43650 54.8019 35.7609 0100191 9.0766 351.1044 1.77571004 401

Live tracking and technical data element details for YZ-1 R/B (NORAD 43650). YZ-1 R/B can be tracked NOW for your location showing map with azimuth and elevation plus other details from your city location.

Track the satellite on the map from your city or location and see movement details for azimuth, elevation, latitude, longitude, range, height, and movement on the map or in text.







IsCatalogInMostPopularTable: catalog: 43650, numindb: 23
Update: records affected: 1



GetName: 43650 YZ-1 R/B

Hit Count: updated at: Sat, 17 Nov 2018 02:37:05 GMT